Location: Ca�n Batista
(41.4099°N, 1.7752°E)
Time: 13:51:46
(UTC+00:00)

Cosmos 2322 - Pass Details

Date: 03 March 2021
Orbit: 842 x 853 km, 71.0° (Epoch: 21 April)

Event Time Altitude Azimuth Distance (km) Brightness Sun altitude
Rises 19:41:56 0° 204° (SSW) 3,406 7.0 -22.4°
Reaches altitude 10° 19:44:22 10° 205° (SSW) 2,474 6.3 -22.9°
Maximum altitude 19:50:04 83° 293° (WNW) 865 3.7 -23.9°
Drops below altitude 10° 19:55:48 10° 22° (NNE) 2,488 6.0 -25.0°
Sets 19:58:16 0° 24° (NNE) 3,427 6.8 -25.4°
